556  
ASUS46 KSTO 272215  
RWRCA  
 
NORTHERN AND CENTRAL CA REGIONAL WEATHER ROUNDUP  
NATIONAL WEATHER SERVICE SACRAMENTO CA  
300 PM PDT THU APR 27 2017  
 
NOTE: FAIR INDICATES FEW OR NO CLOUDS BELOW 12,000 FEET WITH NO  
SIGNIFICANT WEATHER AND/OR S TO VISIBILITY
.  
 
CAZ001-003-272300-  
NORTHWEST AREA  
 
CITY SKY/WX TMP DP RH WIND PRES REMARKS
 
CRESCENT CITY SUNNY 57 47 69 NW14 30.22S  
UKIAH PTSUNNY 68 42 38 W13G23 30.05S  

 
 
CAZ006-505>513-272300-  
BAY AREA  
 
CITY SKY/WX TMP DP RH WIND PRES REMARKS
 
SANTA ROSA MOSUNNY 74 40 29 NW14G22 29.98F  
SAN RAFAEL N/A 65 MM MM MISG  
NAPA MOSUNNY 72 52 49 SW8 30.01F  
CONCORD SUNNY 74 41 30 W15 30.00F  
OAKLAND CITY N/A MM MM MM MISG  
OAKLAND PTSUNNY 67 51 56 SW14 30.03F  
SAN FRAN CITY N/A MM MM MM MISG  
SAN FRAN ARPT PTSUNNY 64 45 49 W22G30 30.04F  
LIVERMORE SUNNY 72 48 42 W13 29.98F  
HAYWARD SUNNY 66 47 50 W16 30.03F  
REDWOOD CITY N/A 67 MM 44 MISG  
MOFFETT ARPT SUNNY 70 47 43 N17G24 30.03F  
SAN JOSE ARPT PTSUNNY 68 46 45 NW17 30.03F  

 
CAZ034-037-514>518-272300-  
CENTRAL COAST  
 
CITY SKY/WX TMP DP RH WIND PRES REMARKS
 
WATSONVILLE SUNNY 69 52 54 S8 30.01F  
SALINAS SUNNY 67 46 47 W17 30.02F  
MONTEREY SUNNY 61 47 59 W12 30.07F  
SAN LUIS OBISP MOSUNNY 68 47 46 NW23 29.92F  
SANTA MARIA MOSUNNY 66 50 56 W28G36 29.90S  

 
CAZ015-016-272300-  
NORTHERN SACRAMENTO VALLEY  
 
CITY SKY/WX TMP DP RH WIND PRES REMARKS
 
REDDING SUNNY 72 34 24 VRB3 29.98F  
RED BLUFF SUNNY 72 32 23 N5 30.00F  
OROVILLE SUNNY 73 36 25 NW12G21 29.98F  

 
CAZ016>018-272300-  
SOUTHERN SACRAMENTO VALLEY  
 
CITY SKY/WX TMP DP RH WIND PRES REMARKS
 
AUBURN SUNNY 66 34 30 NW12G18 30.00S  
BEALE AFB SUNNY 74 37 26 NW12 29.95F  
LINCOLN FAIR 73 32 21 NW13G20 29.97F  
MARYSVILLE MOSUNNY 73 35 25 NW15 29.98F  
SAC INTL ARPT PTSUNNY 73 36 25 NW12 29.97F  
MATHER AIRPORT MOSUNNY 73 34 23 NW13 29.97F  
DOWNTOWN SAC N/A 75 MM MM MISG  
SAC EXEC ARPT SUNNY 74 34 23 W15 29.98F  
VACAVILLE SUNNY 75 48 38 S5 29.99F  
TRAVIS AFB SUNNY 73 53 50 SW10 29.97F  

 
CAZ019>021-272300-  
SAN JOAQUIN VALLEY  
 
CITY SKY/WX TMP DP RH WIND PRES REMARKS
 
STOCKTON SUNNY 76 48 37 W14G25 29.97F  
MODESTO SUNNY 77 37 23 NW17G25 29.96F  
MERCED SUNNY 75 45 34 NW22 29.94F  
LEMOORE MOSUNNY 79 45 29 N23G39 29.93S  
FRESNO MOSUNNY 74 51 44 NW22 29.92F  
HANFORD SUNNY 77 51 40 NW15G24 29.92F  
PORTERVILLE N/A 75 52 44 NW12 29.93F  
BAKERSFIELD PTSUNNY 75 51 43 N8 29.92F  

 
CAZ011-012-071-272300-  
NORTHERN MOUNTAINS  
 
CITY SKY/WX TMP DP RH WIND PRES REMARKS
 
YREKA MOSUNNY 54 33 45 NW7 30.10F  
MOUNT SHASTA MOSUNNY 56 29 35 VRB5 30.05F  
ALTURAS MOSUNNY 50 27 40 NW14G22 30.04F  

 
CAZ011-012-071-272300-  
SIERRA NEVADA MTNS  
 
CITY SKY/WX TMP DP RH WIND PRES REMARKS
 
BLUE CANYON PTSUNNY 48 38 68 VRB7 30.04F  
TRUCKEE PTSUNNY 54 25 32 W13G21 30.01  
TAHOE VLY ARPT MOSUNNY 53 26 35 MISG 30.00F  
MAMMOTH LAKES FAIR 60 22 22 W23G35 29.98R  

 
 
 
CLICK HERE TO GO TO PREVIOUS BULLETINS.

The Nexlab CA Page Main Text Page